Location: Newark
(44.3681°N, 100.3364°W)
Time: 10:13:27
(UTC+00:00)

Explorer 7 - Pass Details

Date: 27 February 2020
Orbit: 485 x 679 km, 50.3° (Epoch: 28 March)

Event Time Altitude Azimuth Distance (km) Brightness Sun altitude
Rises 14:56:27 0° 184° (S) 3,014 10.9 14.9°
Reaches altitude 10° 14:59:58 10° 159° (SSE) 2,091 10.7 15.5°
Maximum altitude 15:02:17 13° 130° (SE) 1,857 11.9 15.9°
Drops below altitude 10° 15:04:34 10° 101° (E) 2,065 11.5 16.2°
Sets 15:08:00 0° 75° (ENE) 2,945 11.2 16.7°
